Content
SEND FEEDBACK

Daily
Averages
Monthly
Summary
United States of America

MILLEDGEVILLE, GEORGIA


Home > North America > United States > Georgia
Elevation: 308 feet     Latitude: 33 05N     Longitude: 083 15W

WEATHER
 
SELECT A DAY
Number of Records: 213,458;   Date Range: 4/21/05 - 11/20/14
 
SHARE

PRINT THIS DATA

[ ← Previous Day ]
WEATHER ALMANAC - JANUARY 31, 2013
[ Next Day → ]
[ °C ]   °F
Weather ElementAverageHighLow
Temperature44.3 °F53.6 °F (1:35 pm)35.6 °F (10:55 pm)
Dewpoint30.1 °F50 °F (12:35 am)21.2 °F (3:15 pm)
Humidity60.2 %94 % (12:35 am)28 % (3:15 pm)
Barometer30.06 in30.21 in (11:55 pm)29.80 in (12:35 am)
Wind Speed7 mph18.4 mph (12:55 am)
Wind Gust26.5 mph (12:55 am)
Weather ElementAverage
Visibility10 mi
Wind DirectionSSW (204.8 °)

Weather ElementTotal
Precipitation---
Heating Degree Days20.4 (Base 65)
Averaged from 60 records on January 31, 2013
WEATHER CONDITIONS BREAKOUT
WIND DIRECTION BREAKOUT
WEATHER BY HOUR - JANUARY 31, 2013
[ °C ]   °F
Local TimeTemperatureDewpointHumidityBarometerVisibilityWind DirectionWind SpeedGust SpeedPrecipitationEventsConditions
12:35 AM51.8 °F50.0 °F94 %29.80 in10.0 miWest (270°)3.5 mphMostly Cloudy
12:55 AM51.8 °F44.6 °F76 %29.83 in10.0 miWNW (300°)18.4 mph26.5 mphOvercast
1:15 AM50.0 °F41.0 °F71 %29.86 in10.0 miWNW (290°)17.3 mph26.5 mphOvercast
1:35 AM48.2 °F37.4 °F66 %29.87 in10.0 miWest (280°)12.7 mph20.7 mphOvercast
1:55 AM48.2 °F35.6 °F62 %29.89 in10.0 miWest (280°)11.5 mph20.7 mphScattered Clouds
2:15 AM46.4 °F35.6 °F66 %29.89 in10.0 miWest (280°)12.7 mph18.4 mphScattered Clouds
2:35 AM46.4 °F33.8 °F62 %29.90 in10.0 miWest (270°)5.8 mphScattered Clouds
2:55 AM46.4 °F33.8 °F62 %29.91 in10.0 miWest (270°)5.8 mphScattered Clouds
3:15 AM46.4 °F33.8 °F62 %29.92 in10.0 miWest (260°)8.1 mphMostly Cloudy
3:35 AM46.4 °F33.8 °F62 %29.93 in10.0 miWNW (290°)13.8 mph21.9 mphMostly Cloudy
3:55 AM44.6 °F33.8 °F66 %29.94 in10.0 miWest (270°)6.9 mph16.1 mphClear
4:15 AM44.6 °F33.8 °F66 %29.94 in10.0 miWest (280°)8.1 mph17.3 mphScattered Clouds
4:35 AM42.8 °F32.0 °F66 %29.95 in10.0 miWest (280°)8.1 mph19.6 mphScattered Clouds
4:55 AM42.8 °F30.2 °F61 %29.95 in10.0 miWNW (290°)11.5 mph20.7 mphClear
5:15 AM41.0 °F28.4 °F61 %29.97 in10.0 miWest (280°)9.2 mph16.1 mphClear
5:35 AM41.0 °F30.2 °F65 %29.99 in10.0 miWest (280°)8.1 mphClear
5:55 AM41.0 °F28.4 °F61 %30.00 in10.0 miWest (280°)10.4 mphClear
6:15 AM41.0 °F28.4 °F61 %30.02 in10.0 miWNW (290°)5.8 mphClear
6:35 AM39.2 °F30.2 °F70 %30.03 in10.0 miWest (280°)9.2 mphClear
6:55 AM39.2 °F28.4 °F65 %30.02 in10.0 miWNW (290°)10.4 mphClear
7:15 AM39.2 °F28.4 °F65 %30.03 in10.0 miWNW (300°)9.2 mphClear
7:35 AM37.4 °F28.4 °F70 %30.04 in10.0 miWNW (290°)4.6 mphClear
7:55 AM37.4 °F28.4 °F70 %30.05 in10.0 miWest (280°)9.2 mphClear
8:15 AM39.2 °F28.4 °F65 %30.06 in10.0 miWest (280°)9.2 mphClear
8:35 AM39.2 °F30.2 °F70 %30.07 in10.0 miWNW (290°)4.6 mphClear
9:55 AM42.8 °F30.2 °F61 %30.09 in10.0 miWest (280°)9.2 mph16.1 mphClear
10:15 AM44.6 °F30.2 °F57 %30.10 in10.0 miWNW (290°)12.7 mph18.4 mphClear
10:35 AM44.6 °F30.2 °F57 %30.10 in10.0 miWest (280°)8.1 mphClear
10:55 AM44.6 °F28.4 °F53 %30.10 in10.0 miWNW (300°)11.5 mph17.3 mphClear
11:15 AM46.4 °F28.4 °F50 %30.11 in10.0 miWest (280°)9.2 mph17.3 mphClear
11:35 AM46.4 °F28.4 °F50 %30.12 in10.0 miWNW (290°)11.5 mph18.4 mphClear
11:55 AM48.2 °F26.6 °F43 %30.11 in10.0 miWNW (300°)10.4 mph18.4 mphClear
12:15 PM50.0 °F26.6 °F40 %30.12 in10.0 miWNW (290°)10.4 mph17.3 mphClear
12:55 PM51.8 °F23.0 °F33 %30.11 in10.0 miWest (280°)16.1 mph20.7 mphClear
1:35 PM53.6 °F23.0 °F30 %30.10 in10.0 miWest (280°)13.8 mph25.3 mphClear
2:35 PM53.6 °F23.0 °F30 %30.10 in10.0 miNW (310°)11.5 mph20.7 mphClear
3:15 PM53.6 °F21.2 °F28 %30.11 in10.0 miWNW (290°)16.1 mph23.0 mphClear
3:55 PM53.6 °F23.0 °F30 %30.10 in10.0 miNW (310°)9.2 mph19.6 mphClear
4:15 PM53.6 °F21.2 °F28 %30.11 in10.0 miWNW (290°)10.4 mph19.6 mphClear
4:35 PM53.6 °F23.0 °F30 %30.11 in10.0 miWNW (290°)8.1 mph18.4 mphClear
4:55 PM53.6 °F23.0 °F30 %30.12 in10.0 miNW (310°)9.2 mph16.1 mphClear
5:15 PM51.8 °F23.0 °F33 %30.12 in10.0 miWNW (290°)6.9 mph18.4 mphClear
6:15 PM50.0 °F23.0 °F35 %30.13 in10.0 miWest (280°)3.5 mphClear
6:35 PM48.2 °F23.0 °F37 %30.13 in10.0 miCalmClear
6:55 PM46.4 °F26.6 °F46 %30.13 in10.0 miCalmClear
7:15 PM42.8 °F28.4 °F57 %30.13 in10.0 miCalmClear
7:35 PM42.8 °F30.2 °F61 %30.14 in10.0 miCalmClear
7:55 PM41.0 °F30.2 °F65 %30.15 in10.0 miCalmClear
8:15 PM41.0 °F30.2 °F65 %30.16 in10.0 miCalmClear
8:35 PM39.2 °F32.0 °F75 %30.17 in10.0 miCalmClear
8:55 PM39.2 °F32.0 °F75 %30.18 in10.0 miCalmClear
9:15 PM39.2 °F32.0 °F75 %30.18 in10.0 miCalmClear
9:35 PM37.4 °F32.0 °F81 %30.18 in10.0 miCalmClear
9:55 PM37.4 °F32.0 °F81 %30.19 in10.0 miCalmClear
10:15 PM37.4 °F32.0 °F81 %30.19 in10.0 miCalmClear
10:35 PM37.4 °F32.0 °F81 %30.19 in10.0 miCalmClear
10:55 PM35.6 °F32.0 °F87 %30.20 in10.0 miCalmClear
11:15 PM35.6 °F32.0 °F87 %30.20 in10.0 miCalmClear
11:35 PM35.6 °F32.0 °F87 %30.20 in10.0 miCalmClear
11:55 PM35.6 °F32.0 °F87 %30.21 in10.0 miCalmClear
Hourly data recorded from KMLJ, located miles away from Milledgeville, Georgia







STORIES FROM OUR PARTNERS